GW6098 Weather Reports


time (UTC)temp
C
wind
direction
speed
KPH
gust
KPH
rain 1hr
cm
rain 24hr
cm
rain mn
cm
humidity
%
barometer
mb
20260505022346 18 84 0.0 0.0 0.00 0.00 0.00 68 1009.6
20260505021525 18 84 0.0 3.2 0.00 0.00 0.00 66 1008.5
20260505021144 18 84 1.6 3.2 0.00 0.00 0.00 66 1010.0
20260505020643 19 84 1.6 3.2 0.00 0.00 0.00 66 1009.9
20260505020142 19 84 1.6 4.8 0.00 0.00 0.00 65 1009.9
20260505020028 18 84 1.6 4.8 0.00 0.00 0.00 64 1008.6
20260505015639 19 87 1.6 4.8 0.00 0.00 0.00 65 1010.0
20260505015140 19 72 0.0 1.6 0.00 0.00 0.00 65 1010.3
20260505014535 19 72 0.0 3.2 0.00 0.00 0.00 64 1008.7
20260505014133 19 72 1.6 4.8 0.00 0.00 0.00 64 1010.2
20260505013632 19 72 3.2 4.8 0.00 0.00 0.00 64 1010.4
20260505013130 20 49 1.6 4.8 0.00 0.00 0.00 65 1010.4
20260505013029 19 49 1.6 4.8 0.00 0.00 0.00 64 1008.9
20260505012629 20 26 1.6 4.8 0.00 0.00 0.00 63 1010.4
20260505012129 20 18 1.6 4.8 0.00 0.00 0.00 64 1010.3
20260505011628 20 34 1.6 4.8 0.00 0.00 0.00 63 1010.5
20260505011533 20 81 0.0 4.8 0.00 0.00 0.00 63 1009.0
20260505011127 20 87 1.6 6.4 0.00 0.00 0.00 62 1010.3
20260505010627 20 32 3.2 8.0 0.00 0.00 0.00 63 1010.4
20260505010129 20 5 1.6 8.0 0.00 0.00 0.00 62 1010.4
20260505010026 20 18 1.6 6.4 0.00 0.00 0.00 61 1009.0
20260505005628 21 84 1.6 6.4 0.00 0.00 0.00 61 1010.4
20260505005122 21 65 1.6 6.4 0.00 0.00 0.00 63 1010.5
20260505004616 21 72 1.6 6.4 0.00 0.00 0.00 61 1010.4
20260505004541 20 86 3.2 6.4 0.00 0.00 0.00 61 1009.0
20260505004109 21 335 1.6 6.4 0.00 0.00 0.00 62 1010.7
20260505003609 21 99 3.2 8.0 0.00 0.00 0.00 62 1010.7
20260505003021 21 78 1.6 8.0 0.00 0.00 0.00 60 1009.1
20260505002608 21 133 1.6 6.4 0.00 0.00 0.00 60 1010.5
20260505002110 21 59 1.6 6.4 0.00 0.00 0.00 61 1010.3
20260505001520 21 53 1.6 6.4 0.00 0.00 0.00 59 1009.0
20260505001108 21 79 3.2 1.6 0.00 0.00 0.00 60 1010.4
20260505000033 21 40 1.6 6.4 0.00 0.00 0.00 59 1009.1
20260504235625 21 42 3.2 6.4 0.00 0.00 0.00 59 1010.5
20260504235125 21 344 3.2 8.0 0.00 0.00 0.00 58 1010.5
20260504234528 21 115 1.6 9.7 0.00 0.00 0.00 58 1009.0
20260504234122 22 94 3.2 9.7 0.00 0.00 0.00 57 1010.8
20260504233619 22 26 4.8 9.7 0.00 0.00 0.00 58 1010.4
20260504233120 22 332 3.2 9.7 0.00 0.00 0.00 58 1010.5
20260504233028 22 342 3.2 8.0 0.00 0.00 0.00 58 1009.1
20260504232115 22 53 3.2 9.7 0.00 0.00 0.00 57 1010.9
20260504231619 22 349 4.8 11.3 0.00 0.00 0.00 57 1011.0
20260504231525 21 23 3.2 11.3 0.00 0.00 0.00 58 1009.1
20260504231118 21 62 3.2 11.3 0.00 0.00 0.00 58 1011.0
20260504230613 21 13 4.8 9.7 0.00 0.00 0.00 58 1011.0
20260504230023 21 317 3.2 11.3 0.00 0.00 0.00 57 1009.3
20260504225418 22 355 4.8 11.3 0.00 0.00 0.00 58 1011.1
20260504224918 22 5 4.8 9.7 0.00 0.00 0.00 58 1010.7
20260504224520 22 331 4.8 9.7 0.00 0.00 0.00 56 1009.4
20260504224411 22 40 4.8 9.7 0.00 0.00 0.00 57 1010.9
20260504223909 22 355 4.8 8.0 0.00 0.00 0.00 60 1010.9
20260504223408 22 5 4.8 9.7 0.00 0.00 0.00 58 1011.2
20260504223026 21 355 4.8 9.7 0.00 0.00 0.00 57 1009.3
20260504222912 22 10 4.8 9.7 0.00 0.00 0.00 57 1011.2
20260504222408 22 346 4.8 9.7 0.00 0.00 0.00 58 1011.3
20260504221909 22 341 4.8 9.7 0.00 0.00 0.00 57 1011.3
20260504221528 22 5 4.8 9.7 0.00 0.00 0.00 58 1009.4
20260504221409 22 346 4.8 9.7 0.00 0.00 0.00 58 1011.2
20260504220909 22 25 4.8 9.7 0.00 0.00 0.00 59 1011.4
20260504220409 22 22 3.2 8.0 0.00 0.00 0.00 61 1011.4
20260504220012 22 351 3.2 8.0 0.00 0.00 0.00 61 1009.5
20260504215909 22 355 3.2 8.0 0.00 0.00 0.00 61 1011.4
20260504215409 22 24 3.2 8.0 0.00 0.00 0.00 60 1011.5
20260504214909 22 346 3.2 9.7 0.00 0.00 0.00 62 1011.4
20260504214504 21 15 3.2 9.7 0.00 0.00 0.00 62 1009.7
20260504214410 21 355 3.2 9.7 0.00 0.00 0.00 62 1011.4
20260504213852 22 350 1.6 8.0 0.00 0.00 0.00 61 1011.6
20260504213353 21 10 3.2 6.4 0.00 0.00 0.00 60 1011.5
20260504213005 21 355 3.2 8.0 0.00 0.00 0.00 59 1009.7
20260504212853 21 351 3.2 8.0 0.00 0.00 0.00 62 1011.5
20260504212352 21 338 3.2 8.0 0.00 0.00 0.00 63 1011.6
20260504211855 21 0 3.2 6.4 0.00 0.00 0.00 62 1011.7
20260504211520 21 39 0.0 9.7 0.00 0.00 0.00 62 1009.9
20260504211354 21 39 4.8 9.7 0.00 0.00 0.00 63 1011.7
20260504210855 21 355 6.4 9.7 0.00 0.00 0.00 60 1011.7
20260504210022 21 355 4.8 8.0 0.00 0.00 0.00 62 1009.8
20260504205353 22 5 4.8 9.7 0.00 0.00 0.00 61 1011.5
20260504204855 21 59 4.8 9.7 0.00 0.00 0.00 61 1011.5
20260504204516 21 355 3.2 8.0 0.00 0.00 0.00 59 1009.7
20260504204354 21 0 4.8 8.0 0.00 0.00 0.00 62 1011.5
20260504203854 21 5 3.2 8.0 0.00 0.00 0.00 61 1011.5
20260504203355 21 26 4.8 8.0 0.00 0.00 0.00 60 1011.5
20260504203009 21 349 3.2 8.0 0.00 0.00 0.00 60 1009.7
20260504202855 21 343 3.2 8.0 0.00 0.00 0.00 58 1011.5
20260504202355 22 332 3.2 6.4 0.00 0.00 0.00 60 1011.6
20260504201853 21 32 4.8 9.7 0.00 0.00 0.00 59 1011.7
20260504201508 21 338 3.2 11.3 0.00 0.00 0.00 59 1009.8
20260504201353 21 27 6.4 11.3 0.00 0.00 0.00 59 1011.6
20260504200853 22 344 4.8 11.3 0.00 0.00 0.00 58 1011.6
20260504200352 22 0 3.2 8.0 0.00 0.00 0.00 58 1011.8
20260504200007 21 48 3.2 8.0 0.00 0.00 0.00 60 1009.8
20260504195352 21 5 6.4 9.7 0.00 0.00 0.00 59 1011.6
20260504194853 21 336 6.4 9.7 0.00 0.00 0.00 57 1011.6
20260504194525 21 342 6.4 9.7 0.00 0.00 0.00 57 1009.7
20260504194353 22 348 4.8 9.7 0.00 0.00 0.00 58 1011.8
20260504193854 22 339 4.8 8.0 0.00 0.00 0.00 59 1011.8
20260504193353 22 349 4.8 12.9 0.00 0.00 0.00 56 1011.8
20260504193019 22 5 4.8 12.9 0.00 0.00 0.00 54 1009.8
20260504192853 22 346 3.2 12.9 0.00 0.00 0.00 56 1011.8
20260504192354 22 355 4.8 8.0 0.00 0.00 0.00 58 1011.5
20260504191515 22 337 3.2 8.0 0.00 0.00 0.00 56 1009.8
20260504191258 22 341 3.2 8.0 0.00 0.00 0.00 56 1011.8
20260504190755 22 54 4.8 12.9 0.00 0.00 0.00 57 1011.3
20260504190253 22 349 4.8 12.9 0.00 0.00 0.00 57 1011.3
20260504190012 22 346 6.4 12.9 0.00 0.00 0.00 56 1009.7
20260504185751 22 29 3.2 8.0 0.00 0.00 0.00 59 1011.7
20260504185254 22 49 3.2 4.8 0.00 0.00 0.00 56 1011.3
20260504184511 21 75 3.2 6.4 0.00 0.00 0.00 59 1009.7
20260504184250 21 15 3.2 1.6 0.00 0.00 0.00 59 1011.4
20260504183027 20 0 4.8 8.0 0.00 0.00 0.00 61 1012.3
20260504183024 19 352 3.2 8.0 0.00 0.00 0.00 60 1010.0
20260504182527 19 0 4.8 4.8 0.00 0.00 0.00 60 1011.7
20260504181522 19 360 4.8 12.9 0.00 0.00 0.00 60 1010.1
20260504181004 19 15 6.4 12.9 0.00 0.00 0.00 61 1011.7
20260504180503 20 36 4.8 11.3 0.00 0.00 0.00 60 1011.7
20260504180021 20 345 3.2 9.7 0.00 0.00 0.00 59 1010.0
20260504180002 20 5 4.8 9.7 0.00 0.00 0.00 60 1011.7
20260504175500 20 355 4.8 9.7 0.00 0.00 0.00 59 1011.5
20260504175001 20 5 3.2 9.7 0.00 0.00 0.00 59 1011.4
20260504174519 20 36 0.0 8.0 0.00 0.00 0.00 60 1009.9
20260504174500 20 36 3.2 8.0 0.00 0.00 0.00 60 1011.5
20260504173958 20 309 3.2 6.4 0.00 0.00 0.00 59 1011.3
20260504173459 20 34 3.2 9.7 0.00 0.00 0.00 59 1011.3
20260504173013 20 348 4.8 9.7 0.00 0.00 0.00 59 1009.9
20260504172956 20 28 3.2 9.7 0.00 0.00 0.00 59 1011.5
20260504171943 20 14 3.2 6.4 0.00 0.00 0.00 59 1011.6
20260504171512 20 32 1.6 6.4 0.00 0.00 0.00 58 1010.0
20260504171443 20 31 3.2 6.4 0.00 0.00 0.00 58 1011.9
20260504170941 20 65 3.2 6.4 0.00 0.00 0.00 58 1011.5
20260504170435 20 35 3.2 9.7 0.00 0.00 0.00 58 1011.6
20260504160404 20 20 3.2 9.7 0.00 0.00 0.00 54 1011.4
20260504150904 20 291 3.2 9.7 0.00 0.00 0.00 51 1011.4
20260504150405 20 330 4.8 12.9 0.00 0.00 0.00 54 1011.2
20260504140903 16 315 0.0 3.2 0.00 0.00 0.00 69 1010.8
20260504140403 15 313 0.0 3.2 0.00 0.00 0.00 70 1010.7
20260504110332 12 185 1.6 6.4 0.00 0.00 0.00 69 1009.6
20260504100420 13 206 0.0 0.0 0.00 0.00 0.00 67 1010.0
20260504081522 14 188 3.2 8.0 0.00 0.00 0.00 64 1008.4
20260504080119 14 196 4.8 6.4 0.00 0.00 0.00 65 1009.9
20260504060108 15 184 3.2 6.4 0.00 0.00 0.00 63 1010.3
20260504050605 15 184 3.2 4.8 0.00 0.00 0.00 66 1010.4
20260504050104 15 183 3.2 4.8 0.00 0.00 0.00 64 1010.6
20260504050010 15 183 1.6 4.8 0.00 0.00 0.00 64 1009.2
20260504045602 15 184 3.2 4.8 0.00 0.00 0.00 65 1010.7
20260504045102 15 182 3.2 4.8 0.00 0.00 0.00 65 1010.6
20260504044602 15 182 1.6 4.8 0.00 0.00 0.00 65 1010.5
20260504044506 15 182 3.2 4.8 0.00 0.00 0.00 64 1009.1
20260504044102 15 182 3.2 3.2 0.00 0.00 0.00 64 1010.4
20260504043604 15 182 3.2 4.8 0.00 0.00 0.00 63 1010.4
20260504043103 15 182 3.2 6.4 0.00 0.00 0.00 63 1010.4
20260504043008 15 182 1.6 6.4 0.00 0.00 0.00 62 1008.9
20260504042603 15 182 4.8 6.4 0.00 0.00 0.00 62 1010.3
20260504042102 15 178 3.2 6.4 0.00 0.00 0.00 63 1010.5
20260504041601 16 194 3.2 6.4 0.00 0.00 0.00 63 1010.3
20260504041510 15 194 3.2 6.4 0.00 0.00 0.00 62 1009.0
20260504041100 16 192 3.2 6.4 0.00 0.00 0.00 62 1010.4
20260504040600 16 184 3.2 6.4 0.00 0.00 0.00 61 1010.4
20260504040103 16 180 3.2 4.8 0.00 0.00 0.00 60 1010.4
20260504040006 16 180 1.6 4.8 0.00 0.00 0.00 58 1009.0
20260504035601 16 180 3.2 4.8 0.00 0.00 0.00 59 1010.2
20260504034505 16 180 1.6 4.8 0.00 0.00 0.00 59 1008.9
20260504033544 17 180 3.2 4.8 0.00 0.00 0.00 58 1010.2
20260504033009 17 180 3.2 4.8 0.00 0.00 0.00 56 1008.9
20260504032042 18 180 3.2 4.8 0.00 0.00 0.00 57 1010.3
20260504031542 18 178 3.2 4.8 0.00 0.00 0.00 56 1010.2
20260504031507 18 179 3.2 4.8 0.00 0.00 0.00 56 1008.9
20260504031044 18 178 3.2 4.8 0.00 0.00 0.00 56 1010.2
20260504030541 18 178 3.2 4.8 0.00 0.00 0.00 55 1010.2
20260504030035 19 178 3.2 4.8 0.00 0.00 0.00 54 1010.3
20260504030010 19 178 1.6 4.8 0.00 0.00 0.00 53 1009.0
20260504025529 19 178 3.2 4.8 0.00 0.00 0.00 55 1010.3
20260504024508 20 178 1.6 4.8 0.00 0.00 0.00 56 1009.2
20260504024019 20 178 0.0 0.0 0.00 0.00 0.00 56 1010.6
20260504023519 21 178 0.0 0.0 0.00 0.00 0.00 55 1010.5
20260504023007 21 178 0.0 0.0 0.00 0.00 0.00 52 1009.3
20260504023004 21 178 0.0 0.0 0.00 0.00 0.00 53 1010.9